Regional Weather Roundup
Issued by NWS

Home | Current Version | Previous Version | Graphics & Text | Print | Product List | Glossary On
Versions: 1 2 3 4 5 6 7 8 9 10 11 12 13 14 15 16 17 18 19 20 21 22 23 24 25 26 27 28 29 30 31 32 33 34 35 36 37 38 39 40 41 42 43 44 45 46 47 48 49 50
000
ASUS43 KDTX 161401
RWRMI
MICHIGAN HOURLY REGIONAL WEATHER ROUNDUP
NATIONAL WEATHER SERVICE DETROIT/PONTIAC MI
1000 AM EDT TUE SEP 16 2014

NOTE: "FAIR" INDICATES FEW OR NO CLOUDS BELOW 12,000 FEET WITH NO
SIGNIFICANT WEATHER AND/OR OBSTRUCTION TO VISIBILITY.

MIZ047>049-052>055-059>063-066>070-074>076-081>083-161500-
SOUTHEAST LOWER MICHIGAN

CITY           SKY/WX    TMP DP  RH WIND       PRES   REMARKS
ADRIAN         MOSUNNY   54  50  86 NW5       30.19S
ALMA           FOG       48  47  97 SW5       30.18R VSB 1/4
ANN ARBOR      SUNNY     56  46  69 N6        30.17R
BAD AXE        MOSUNNY   53  53 100 NW3       30.16R
CARO           FOG       48  48 100 SW3       30.17R VSB 3/4
DETROIT CITY   SUNNY     58  48  69 NW7       30.17S
DETROIT        MOSUNNY   56  49  77 W5        30.17S
FLINT          CLOUDY    51  48  89 SW5       30.18S FOG
GROSSE ILE     SUNNY     55  50  82 N6        30.15S
HILLSDALE      MOSUNNY   52  50  93 N6        30.19R
HOWELL         PTSUNNY   52  49  91 NW3       30.18S

CITY           SKY/WX    TMP DP  RH WIND       PRES   REMARKS
JACKSON        CLOUDY    52  48  86 CALM      30.19R
LAMBERTVILLE   MOSUNNY   55  50  82 W5        30.18S
LANSING        FOG       49  49 100 VRB3      30.19S VSB 1/4
LAPEER         CLOUDY    49  47  94 CALM      30.18R
MASON          MOSUNNY   52  48  87 CALM      30.18S
MONROE         SUNNY     55  52  88 NW6       30.16R
MT. CLEMENS    CLOUDY    52  50  92 NW5       30.15R
PONTIAC        PTSUNNY   51  47  86 N6        30.16R
PORT HOPE        N/A     59  47  64 CALM      30.13S
PORT HURON     MOSUNNY   52  52 100 NW7       30.16R
TRI CITIES     SUNNY     52  49  89 CALM      30.18R FOG
TROY           SUNNY     55  48  77 NW5       30.18R
SAGINAW HB     MOSUNNY   50  50 100 CALM      30.17R
$$
MIZ043>046-050>051-056>058-064>065-071>073-077>080-161500-
SOUTHWEST LOWER MICHIGAN

CITY           SKY/WX    TMP DP  RH WIND       PRES   REMARKS
BATTLE CREEK   MOSUNNY   51  49  92 CALM      30.19S
BENTON HARBOR  MOSUNNY   54  49  83 CALM      30.19S
BIG RAPIDS     FOG       47  47 100 CALM      30.16S VSB 1/4
COLDWATER      SUNNY     54  49  85 NE6       30.19S
FREMONT        FOG       48  47  98 CALM      30.18R VSB<1/4
HOLLAND        SUNNY     57  51  80 CALM      30.19R
GRAND RAPIDS   MOSUNNY   51  49  92 CALM      30.19R
IONIA          FOG       48  48 100 CALM      30.18R VSB 1/4
KALAMAZOO      SUNNY     56  48  74 CALM      30.20R
LUDINGTON      SUNNY     55  46  71 NW9       30.17R
MARSHALL       MOSUNNY   50  47  90 CALM      30.19R
MOUNT PLEASANT SUNNY     53  51  96 W6        30.16R
MUSKEGON       SUNNY     58  51  78 NW3       30.18S
SOUTH HAVEN    SUNNY     56  51  83 S3        30.19S
$$
MIZ016>042-161500-
NORTHERN LOWER MICHIGAN

CITY           SKY/WX    TMP DP  RH WIND       PRES   REMARKS
ALPENA         SUNNY     52  47  83 SW5       30.13S
BEAVER ISLAND  SUNNY     57  46  65 W10       30.11S
BELLAIRE       PTSUNNY   54  51  87 SE6       30.13F
CADILLAC       FOG       48  48 100 CALM      30.14S VSB 1/4
CHARLEVOIX     SUNNY     58  42  54 W10       30.15S
FRANKFORT      SUNNY     57  43  59 NW8       30.15S
GAYLORD        CLOUDY    49  45  86 SW5       30.13S
GRAYLING       FOG       49  49 100 S3        30.14S VSB 1/4
HARBOR SPRINGS SUNNY     58  41  53 W7        30.11S
HOUGHTON LAKE  CLOUDY    49  49 100 CALM      30.15S
MANISTEE       MOSUNNY   46  45  93 CALM      30.17S
OSCODA         MOSUNNY   52  48  86 W3        30.14R
PELLSTON       SUNNY     55  46  71 W6        30.11F
TRAVERSE CITY  MOSUNNY   55  48  77 W5        30.13S
$$
MIZ007>008-015-161500-
EASTERN UPPER MICHIGAN

CITY           SKY/WX    TMP DP  RH WIND       PRES   REMARKS
KINROSS        SUNNY     50  45  81 W6        30.08S
MACKINAC ISLAN SUNNY     56  44  64 SW8       30.09S
NEWBERRY       SUNNY     50  43  77 SW8       30.08S
$$
MIZ004>006-011>014-085-161500-
CENTRAL UPPER MICHIGAN

CITY           SKY/WX    TMP DP  RH WIND       PRES   REMARKS
MANISTIQUE     SUNNY     51  43  73 W6        30.10S
ESCANABA       SUNNY     48  41  76 W10       30.11S
MENOMINEE      SUNNY     48  39  71 W6        30.14S
SAWYER-GWINN   MOSUNNY   46  39  76 W7        30.08F
$$
MIZ001>003-009>011-084-161500-
WESTERN UPPER MICHIGAN

CITY           SKY/WX    TMP DP  RH WIND       PRES   REMARKS
IRON MOUNTAIN  SUNNY     48  38  68 W5        30.11F
HOUGHTON       MOSUNNY   53  37  54 W20       30.01F
COPPER HARBOR    N/A     56  38  50 MISG      29.98F
IRONWOOD       SUNNY     52  37  58 W16G25    30.06F
$$

ABBREVIATIONS USED IN REMARKS
   TC - TEMPERATURE IN CELSIUS
  WCI - WIND CHILL INDEX
   HX - HEAT INDEX
  VSB - VISIBILITY




USA.gov is the U.S. government's official web portal to all federal, state and local government web resources and services.